SAS932 KLAX-EKCH

Flight info

Callsign SAS932
Flight time N/A
Altitude 33000
Route ORCKA5 LAS Q70 BLIPP Q842 WINEN DCT DTA DCT CKW DCT RAP DCT DLH DCT YSP DCT PEMLU DCT JOVIE DCT CUDDY/M082F330 DCT 58N050W 59N040W 59N030W 59N020W DCT BALIX/N0478F330 DCT NINEX DCT KLONN DCT RAMUD DCT TESPI TESPI4C
Aircraft A333/H-SDE1E3FGHIJ3J4J5M1P2RWXYZ/LB2D1

Departure

Time 2026-05-07 20:34
Airport Los Angeles International Airport (KLAX)

Arrival

Time N/A
Airport Copenhagen Kastrup Airport (EKCH)
Time Latitude Longitude Altitude Speed Heading
2026-05-07 19:54 33.94479 -118.40994 136 ft 0 kts 262°
2026-05-07 20:21 33.94480 -118.40985 136 ft 2 kts 263°
2026-05-07 20:21 33.94482 -118.40968 136 ft 2 kts 262°
2026-05-07 20:21 33.94484 -118.40950 136 ft 2 kts 259°
2026-05-07 20:22 33.94489 -118.40932 136 ft 2 kts 236°
2026-05-07 20:22 33.94499 -118.40919 135 ft 2 kts 216°
2026-05-07 20:22 33.94512 -118.40910 135 ft 2 kts 201°
2026-05-07 20:22 33.94526 -118.40904 135 ft 2 kts 203°
2026-05-07 20:23 33.94540 -118.40897 135 ft 2 kts 195°
2026-05-07 20:23 33.94555 -118.40894 134 ft 2 kts 182°
2026-05-07 20:23 33.94570 -118.40894 134 ft 2 kts 173°
2026-05-07 20:23 33.94585 -118.40896 134 ft 2 kts 172°
2026-05-07 20:24 33.94600 -118.40898 134 ft 2 kts 173°
2026-05-07 20:24 33.94614 -118.40900 134 ft 2 kts 173°
2026-05-07 20:24 33.94629 -118.40903 134 ft 2 kts 173°
2026-05-07 20:24 33.94644 -118.40905 134 ft 2 kts 173°
2026-05-07 20:25 33.94659 -118.40907 134 ft 2 kts 173°
2026-05-07 20:25 33.94674 -118.40910 134 ft 2 kts 173°
2026-05-07 20:25 33.94689 -118.40912 134 ft 2 kts 173°
2026-05-07 20:25 33.94704 -118.40914 134 ft 2 kts 173°
2026-05-07 20:26 33.94719 -118.40916 134 ft 2 kts 156°
2026-05-07 20:26 33.94731 -118.40926 134 ft 2 kts 134°
2026-05-07 20:26 33.94741 -118.40940 134 ft 2 kts 115°
2026-05-07 20:26 33.94745 -118.40958 134 ft 2 kts 95°
2026-05-07 20:27 33.94745 -118.40975 135 ft 2 kts 80°
2026-05-07 20:27 33.94742 -118.40993 135 ft 2 kts 82°
2026-05-07 20:27 33.94741 -118.41008 135 ft 0 kts 83°
2026-05-07 20:29 33.94741 -118.41007 135 ft 0 kts 83°
2026-05-07 20:30 33.94743 -118.40987 135 ft 4 kts 83°
2026-05-07 20:30 33.94748 -118.40935 134 ft 8 kts 80°
2026-05-07 20:30 33.94787 -118.40887 133 ft 8 kts 13°
2026-05-07 20:30 33.94834 -118.40853 133 ft 8 kts 63°
2026-05-07 20:31 33.94846 -118.40784 133 ft 9 kts 83°
2026-05-07 20:31 33.94856 -118.40694 132 ft 12 kts 83°
2026-05-07 20:31 33.94868 -118.40585 131 ft 14 kts 83°
2026-05-07 20:31 33.94880 -118.40457 130 ft 16 kts 83°
2026-05-07 20:32 33.94894 -118.40315 128 ft 17 kts 83°
2026-05-07 20:32 33.94909 -118.40176 127 ft 17 kts 83°
2026-05-07 20:32 33.94922 -118.40053 126 ft 13 kts 83°
2026-05-07 20:32 33.94938 -118.39947 123 ft 12 kts 63°
2026-05-07 20:33 33.95000 -118.39912 122 ft 7 kts 356°
2026-05-07 20:33 33.95040 -118.39941 122 ft 5 kts 289°
2026-05-07 20:33 33.95041 -118.39964 122 ft 0 kts 265°
2026-05-07 20:33 33.95040 -118.39967 122 ft 3 kts 265°
2026-05-07 20:34 33.95018 -118.40182 125 ft 58 kts 263°
2026-05-07 20:34 33.94941 -118.40942 134 ft 122 kts 263°
2026-05-07 20:34 33.94814 -118.42169 152 ft 170 kts 262°
2026-05-07 20:34 33.94673 -118.43570 772 ft 166 kts 263°
2026-05-07 20:35 33.94531 -118.44965 1353 ft 173 kts 263°
2026-05-07 20:35 33.94379 -118.46394 2004 ft 176 kts 263°
2026-05-07 20:35 33.94211 -118.47871 2439 ft 180 kts 263°
2026-05-07 20:35 33.94031 -118.49397 2558 ft 191 kts 262°
2026-05-07 20:36 33.93835 -118.51044 2685 ft 203 kts 263°
2026-05-07 20:36 33.93625 -118.52799 2795 ft 221 kts 263°
2026-05-07 20:36 33.93333 -118.54688 3011 ft 239 kts 251°
2026-05-07 20:36 33.92360 -118.56367 3311 ft 255 kts 220°
2026-05-07 20:37 33.90736 -118.57290 3712 ft 267 kts 194°
2026-05-07 20:37 33.88872 -118.57664 4263 ft 272 kts 184°
2026-05-07 20:37 33.87019 -118.57272 4822 ft 276 kts 156°
2026-05-07 20:37 33.85504 -118.55881 5401 ft 279 kts 128°
2026-05-07 20:38 33.84677 -118.53821 5834 ft 277 kts 101°
2026-05-07 20:38 33.84671 -118.51482 6146 ft 286 kts 82°
2026-05-07 20:38 33.85048 -118.49137 6732 ft 286 kts 69°
2026-05-07 20:38 33.86112 -118.47169 7434 ft 279 kts 41°
2026-05-07 20:39 33.87631 -118.45744 8090 ft 276 kts 35°
2026-05-07 20:39 33.89336 -118.44729 8622 ft 277 kts 15°
2026-05-07 20:39 33.91228 -118.44243 9160 ft 279 kts 13°
2026-05-07 20:39 33.93015 -118.43317 9694 ft 280 kts 38°
2026-05-07 20:40 33.94284 -118.41592 10225 ft 281 kts 57°
2026-05-07 20:40 33.95365 -118.39627 10777 ft 282 kts 54°
2026-05-07 20:40 33.96489 -118.37655 11061 ft 294 kts 55°
2026-05-07 20:40 33.97677 -118.35558 11292 ft 308 kts 55°
2026-05-07 20:41 33.98909 -118.33385 11531 ft 320 kts 55°
2026-05-07 20:41 34.00178 -118.31145 11773 ft 331 kts 55°
2026-05-07 20:41 34.01498 -118.28815 12039 ft 341 kts 55°
2026-05-07 20:41 34.02840 -118.26450 12520 ft 343 kts 55°
2026-05-07 20:42 34.04188 -118.24073 13005 ft 345 kts 55°
2026-05-07 20:42 34.05545 -118.21677 13482 ft 347 kts 55°
2026-05-07 20:42 34.06903 -118.19278 13964 ft 348 kts 55°
2026-05-07 20:42 34.08264 -118.16871 14438 ft 349 kts 55°
2026-05-07 20:43 34.09629 -118.14458 14926 ft 350 kts 55°
2026-05-07 20:43 34.11005 -118.12021 15426 ft 350 kts 55°
2026-05-07 20:43 34.12390 -118.09570 15890 ft 351 kts 55°
2026-05-07 20:43 34.13761 -118.07138 16090 ft 360 kts 55°
2026-05-07 20:44 34.15205 -118.04578 16059 ft 364 kts 55°
2026-05-07 20:44 34.16615 -118.02075 16080 ft 364 kts 55°
2026-05-07 20:44 34.18047 -117.99530 16439 ft 367 kts 55°
2026-05-07 20:44 34.19467 -117.97004 17059 ft 362 kts 55°
2026-05-07 20:45 34.20873 -117.94504 17579 ft 361 kts 55°
2026-05-07 20:45 34.22281 -117.91997 17975 ft 362 kts 55°
2026-05-07 20:45 34.23692 -117.89487 18363 ft 364 kts 54°
2026-05-07 20:45 34.25135 -117.86916 18673 ft 369 kts 55°
2026-05-07 20:46 34.26575 -117.84348 19044 ft 371 kts 54°
2026-05-07 20:46 34.28021 -117.81766 19423 ft 372 kts 54°
2026-05-07 20:46 34.29470 -117.79177 19802 ft 374 kts 54°
2026-05-07 20:46 34.30943 -117.76546 20116 ft 377 kts 54°
2026-05-07 20:47 34.32415 -117.73912 20477 ft 379 kts 54°
2026-05-07 20:47 34.33883 -117.71283 20836 ft 380 kts 54°
2026-05-07 20:47 34.35376 -117.68639 21172 ft 382 kts 53°
2026-05-07 20:47 34.36961 -117.66006 21503 ft 384 kts 53°
2026-05-07 20:48 34.38526 -117.63387 21773 ft 387 kts 53°
2026-05-07 20:48 34.40102 -117.60747 22096 ft 389 kts 53°
2026-05-07 20:48 34.41682 -117.58102 22429 ft 390 kts 53°
2026-05-07 20:48 34.43290 -117.55404 22730 ft 392 kts 53°
2026-05-07 20:49 34.44883 -117.52734 23041 ft 393 kts 53°
2026-05-07 20:49 34.46484 -117.50044 23305 ft 396 kts 53°
2026-05-07 20:49 34.48090 -117.47343 23599 ft 398 kts 52°
2026-05-07 20:49 34.49717 -117.44611 23911 ft 399 kts 53°
2026-05-07 20:50 34.51356 -117.41852 24205 ft 401 kts 53°
2026-05-07 20:50 34.52987 -117.39105 24515 ft 403 kts 53°
2026-05-07 20:50 34.54616 -117.36359 24803 ft 404 kts 53°
2026-05-07 20:50 34.56265 -117.33577 25068 ft 406 kts 53°
2026-05-07 20:51 34.57906 -117.30805 25375 ft 407 kts 53°
2026-05-07 20:51 34.59567 -117.27998 25644 ft 409 kts 53°
2026-05-07 20:51 34.61218 -117.25207 25910 ft 411 kts 53°
2026-05-07 20:51 34.62896 -117.22366 26202 ft 412 kts 53°
2026-05-07 20:52 34.64558 -117.19552 26457 ft 413 kts 53°
2026-05-07 20:52 34.66248 -117.16688 26691 ft 416 kts 53°
2026-05-07 20:52 34.67926 -117.13842 26930 ft 418 kts 53°
2026-05-07 20:52 34.69628 -117.10951 27203 ft 419 kts 53°
2026-05-07 20:53 34.71326 -117.08067 27459 ft 421 kts 53°
2026-05-07 20:53 34.73026 -117.05177 27715 ft 422 kts 53°
2026-05-07 20:53 34.74731 -117.02277 27959 ft 424 kts 52°
2026-05-07 20:53 34.76462 -116.99328 28211 ft 426 kts 52°
2026-05-07 20:54 34.78169 -116.96419 28462 ft 427 kts 52°
2026-05-07 20:54 34.79894 -116.93475 28701 ft 429 kts 52°
2026-05-07 20:54 34.81616 -116.90534 28993 ft 429 kts 52°
2026-05-07 20:54 34.83346 -116.87579 29233 ft 430 kts 52°
2026-05-07 20:55 34.85101 -116.84576 29461 ft 432 kts 52°
2026-05-07 20:55 34.86844 -116.81593 29691 ft 434 kts 52°
2026-05-07 20:55 34.88589 -116.78605 29922 ft 435 kts 52°
2026-05-07 20:55 34.90333 -116.75614 30161 ft 436 kts 52°
2026-05-07 20:56 34.92126 -116.72609 30388 ft 436 kts 49°
2026-05-07 20:56 34.94172 -116.69906 30542 ft 437 kts 45°
2026-05-07 20:56 34.96231 -116.67202 30715 ft 439 kts 45°
2026-05-07 20:56 34.98336 -116.64435 30893 ft 440 kts 45°
2026-05-07 20:57 35.00400 -116.61719 31096 ft 441 kts 45°
2026-05-07 20:57 35.02487 -116.58968 31294 ft 441 kts 45°
2026-05-07 20:57 35.04584 -116.56200 31501 ft 441 kts 45°
2026-05-07 20:57 35.06670 -116.53449 31661 ft 442 kts 45°
2026-05-07 20:58 35.08758 -116.50690 31809 ft 443 kts 45°
2026-05-07 20:58 35.10856 -116.47916 31999 ft 443 kts 45°
2026-05-07 20:58 35.12966 -116.45124 32185 ft 443 kts 45°
2026-05-07 20:58 35.15047 -116.42369 32399 ft 442 kts 45°
2026-05-07 20:59 35.17126 -116.39612 32589 ft 442 kts 46°
2026-05-07 20:59 35.19207 -116.36852 32772 ft 442 kts 46°
2026-05-07 20:59 35.21294 -116.34081 32935 ft 442 kts 46°
2026-05-07 20:59 35.23373 -116.31319 33110 ft 442 kts 46°
2026-05-07 21:00 35.25454 -116.28551 33308 ft 441 kts 46°
2026-05-07 21:00 35.27526 -116.25794 33517 ft 440 kts 46°
2026-05-07 21:00 35.29589 -116.23045 33707 ft 439 kts 46°
2026-05-07 21:00 35.31667 -116.20275 33900 ft 438 kts 46°
2026-05-07 21:01 35.33728 -116.17526 34112 ft 437 kts 46°
2026-05-07 21:01 35.35789 -116.14774 34303 ft 437 kts 46°
2026-05-07 21:01 35.37855 -116.12014 34480 ft 436 kts 46°
2026-05-07 21:01 35.39897 -116.09282 34677 ft 435 kts 46°
2026-05-07 21:02 35.41945 -116.06541 34834 ft 435 kts 46°
2026-05-07 21:02 35.44000 -116.03789 34976 ft 435 kts 46°
2026-05-07 21:02 35.46053 -116.01035 35092 ft 436 kts 46°
2026-05-07 21:03 35.50196 -115.95475 35097 ft 438 kts 46°
2026-05-07 21:03 35.54337 -115.89908 35103 ft 436 kts 46°
2026-05-07 21:04 35.58480 -115.84328 35111 ft 436 kts 46°
2026-05-07 21:04 35.62591 -115.78782 35113 ft 440 kts 46°
2026-05-07 21:05 35.66726 -115.73122 35114 ft 444 kts 46°
2026-05-07 21:05 35.70851 -115.67461 35125 ft 447 kts 46°
2026-05-07 21:06 35.74994 -115.61771 35142 ft 449 kts 46°
2026-05-07 21:06 35.79153 -115.56048 35156 ft 450 kts 46°
2026-05-07 21:07 35.83330 -115.50275 35173 ft 451 kts 46°
2026-05-07 21:07 35.87499 -115.44498 35157 ft 452 kts 46°
2026-05-07 21:08 35.91671 -115.38713 35137 ft 453 kts 46°
2026-05-07 21:08 35.95830 -115.32932 35113 ft 453 kts 47°
2026-05-07 21:09 36.00000 -115.27126 35080 ft 451 kts 47°
2026-05-07 21:09 36.04165 -115.21316 34988 ft 453 kts 47°
2026-05-07 21:09 36.06239 -115.18415 35114 ft 451 kts 47°
2026-05-07 21:10 36.08350 -115.15575 35029 ft 451 kts 41°
2026-05-07 21:10 36.13094 -115.10501 35039 ft 451 kts 39°
2026-05-07 21:11 36.17828 -115.05412 35040 ft 452 kts 40°
2026-05-07 21:11 36.24918 -114.97756 35025 ft 450 kts 40°
2026-05-07 21:12 36.29616 -114.92673 35037 ft 448 kts 40°
2026-05-07 21:12 36.34452 -114.87852 35041 ft 447 kts 42°
2026-05-07 21:13 36.38525 -114.82023 35042 ft 451 kts 54°
2026-05-07 21:13 36.40458 -114.78991 35044 ft 447 kts 41°
2026-05-07 21:13 36.42946 -114.76705 35086 ft 444 kts 32°
2026-05-07 21:14 36.47831 -114.72009 35035 ft 448 kts 38°
2026-05-07 21:14 36.52608 -114.67030 35037 ft 450 kts 39°
2026-05-07 21:15 36.57375 -114.62005 35041 ft 451 kts 39°
2026-05-07 21:15 36.62173 -114.56933 35046 ft 451 kts 39°
2026-05-07 21:16 36.66925 -114.51896 35054 ft 452 kts 38°
2026-05-07 21:16 36.71762 -114.46912 35055 ft 449 kts 32°
2026-05-07 21:17 36.77054 -114.42788 35060 ft 450 kts 31°
2026-05-07 21:17 36.82325 -114.38657 35075 ft 449 kts 31°
2026-05-07 21:18 36.87630 -114.34492 35080 ft 450 kts 31°
2026-05-07 21:18 36.92906 -114.30341 35087 ft 450 kts 31°
2026-05-07 21:19 36.98213 -114.26160 35082 ft 451 kts 31°
2026-05-07 21:19 37.03505 -114.21983 35090 ft 452 kts 31°
2026-05-07 21:20 37.08815 -114.17788 35104 ft 452 kts 31°
2026-05-07 21:20 37.14152 -114.13567 35125 ft 453 kts 31°
2026-05-07 21:21 37.19460 -114.09357 35137 ft 453 kts 31°
2026-05-07 21:21 37.24735 -114.05166 35158 ft 445 kts 31°
2026-05-07 21:22 37.29922 -114.01037 35181 ft 442 kts 31°
2026-05-07 21:22 37.35129 -113.96887 35206 ft 445 kts 31°
2026-05-07 21:23 37.40392 -113.92683 35226 ft 448 kts 31°
2026-05-07 21:23 37.45631 -113.88494 35251 ft 449 kts 31°
2026-05-07 21:24 37.50927 -113.84257 35252 ft 451 kts 31°
2026-05-07 21:24 37.56225 -113.80004 35260 ft 452 kts 31°
2026-05-07 21:25 37.61536 -113.75734 35266 ft 453 kts 31°
2026-05-07 21:25 37.66874 -113.71435 35253 ft 454 kts 31°